TimeEST,TemperatureF,Dew PointF,Humidity,Sea Level PressureIn,VisibilityMPH,Wind Direction,Wind SpeedMPH,Gust SpeedMPH,PrecipitationIn,Events,Conditions,WindDirDegrees,DateUTC
12:56 AM,37.9,14.0,38,30.14,10.0,South,5.8,-,N/A,,Clear,190,2013-11-15 05:56:00
1:56 AM,37.9,16.2,41,30.14,10.0,South,5.8,-,N/A,,Clear,170,2013-11-15 06:56:00
2:56 AM,37.9,15.1,39,30.15,10.0,South,3.5,-,N/A,,Clear,180,2013-11-15 07:56:00
3:56 AM,28.0,19.0,69,30.16,10.0,SE,4.6,-,N/A,,Clear,140,2013-11-15 08:56:00
4:56 AM,34.9,17.1,48,30.16,10.0,SSE,8.1,-,N/A,,Clear,160,2013-11-15 09:56:00
5:56 AM,34.0,18.1,52,30.16,10.0,South,6.9,-,N/A,,Clear,170,2013-11-15 10:56:00
6:27 AM,35.6,17.6,48,30.15,10.0,SSW,6.9,-,N/A,,Clear,200,2013-11-15 11:27:00
6:56 AM,34.9,20.1,55,30.18,10.0,South,4.6,-,N/A,,Clear,180,2013-11-15 11:56:00
7:56 AM,38.8,18.1,43,30.19,10.0,South,6.9,-,N/A,,Clear,170,2013-11-15 12:56:00
8:56 AM,43.0,19.0,38,30.18,10.0,SSE,3.5,-,N/A,,Clear,160,2013-11-15 13:56:00
9:56 AM,45.0,19.0,36,30.18,10.0,SSE,4.6,-,N/A,,Clear,160,2013-11-15 14:56:00
10:56 AM,47.8,21.0,35,30.16,10.0,South,5.8,-,N/A,,Clear,190,2013-11-15 15:56:00
11:56 AM,52.9,19.0,26,30.13,10.0,SW,11.5,-,N/A,,Clear,220,2013-11-15 16:56:00
12:56 PM,54.9,18.1,24,30.11,10.0,WSW,8.1,-,N/A,,Clear,250,2013-11-15 17:56:00
1:56 PM,56.8,17.1,21,30.10,10.0,SW,10.4,-,N/A,,Clear,220,2013-11-15 18:56:00
2:56 PM,54.9,16.2,22,30.10,10.0,SW,12.7,-,N/A,,Clear,230,2013-11-15 19:56:00
3:56 PM,52.9,16.2,23,30.12,10.0,SW,10.4,-,N/A,,Clear,220,2013-11-15 20:56:00
4:56 PM,50.9,16.2,25,30.12,10.0,SSW,8.1,-,N/A,,Clear,210,2013-11-15 21:56:00
5:56 PM,47.8,17.1,29,30.15,10.0,South,6.9,-,N/A,,Clear,190,2013-11-15 22:56:00
6:56 PM,43.0,19.0,38,30.15,10.0,South,5.8,-,N/A,,Clear,170,2013-11-15 23:56:00
7:56 PM,45.0,21.0,39,30.16,10.0,South,5.8,-,N/A,,Clear,170,2013-11-16 00:56:00
8:56 PM,45.0,21.0,39,30.18,10.0,SSE,6.9,-,N/A,,Clear,160,2013-11-16 01:56:00
9:56 PM,45.0,20.1,37,30.18,10.0,SSE,9.2,-,N/A,,Clear,160,2013-11-16 02:56:00
10:56 PM,45.9,20.1,36,30.18,10.0,South,9.2,-,N/A,,Clear,170,2013-11-16 03:56:00
11:56 PM,45.9,20.1,36,30.19,10.0,South,6.9,-,N/A,,Overcast,180,2013-11-16 04:56:00